Volver al catálogo

STARLINK-31153

ActivoComunicacionesVLEO
NORAD 59044·PAYLOAD·🇺🇸 United States

Lanzado Feb 25, 2024 desde Cape Canaveral Space Force Station

Loading…

Próximos Pases (próximas 24 horas)

TLE

ActualizadoSource: CelesTrak SupGP

Época: Sep 14, 2026, 20:43 UTC

1 59044C 24038X   26257.86368056  .00065185  00000+0  23608-2 0  2575
2 59044  43.0018  35.1053 0001554 278.9661 351.7680 15.27549429    10

Sigue STARLINK-31153 en tiempo real con AllMySat

Download on the App Store